Location: *
(31.2983°S, 151.4094°E)
Time: 02:22:23
(UTC+00:00)

Cosmos 2297 - Pass Details

Date: 23 November 2019
Orbit: 835 x 860 km, 71.0° (Epoch: 12 December)

Event Time Altitude Azimuth Distance (km) Brightness Sun altitude
Exits shadow 14:00:11 29° 160° (SSE) 1,518 5.4 -38.1°
Drops below altitude 10° 14:02:48 10° 160° (SSE) 2,471 6.8 -38.1°
Sets 14:05:15 0° 159° (SSE) 3,411 7.7 -38.0°
